User: anonymous   Login
Location: Haliburton Scout Reserve
(45.0900°N, 78.3200°W)
Time: 20:17:32
(UTC-04:00)
Language:

IDEFIX/ARIANE 42P - Orbit

View from above orbital plane
View from above orbital plane
View from above satellite
View from above satellite

Ground track
Ground track

The orbit data is extracted from the following two-line orbital elements,

1 27422U 02021B   15240.24815665  .00000027  00000-0  26816-4 0  9997
2 27422 098.2534 265.7191 0013025 035.3384 324.8659 14.29204668692554
Epoch (UTC): 28 August 2015 05:57:20
Eccentricity: 0.0013025
inclination: 98.2534°
perigee height: 785 km
apogee height: 804 km
right ascension of ascending node: 265.7191°
argument of perigee: 35.3384°
revolutions per day: 14.29204668
mean anomaly at epoch: 324.8659°
orbit number at epoch: 69255

The dashed part of the orbit path shows where the satellite is in the earth's shadow,  

DLR